| time (UTC) | temp C | wind direction | speed KPH | gust KPH | rain 1hr cm | rain 24hr cm | rain mn cm | humidity % | barometer mb |
| 20260509202011 | 17 | 278 | 3.2 | 6.4 | 0.00 | 1.02 | 1.02 | 62 | 999.9 |
| 20260509201506 | 17 | 283 | 3.2 | 4.8 | 0.00 | 1.02 | 1.02 | 62 | 999.9 |
| 20260509201003 | 17 | 272 | 4.8 | 6.4 | 0.00 | 1.02 | 1.02 | 60 | 1000.0 |
| 20260509200458 | 17 | 230 | 3.2 | 6.4 | 0.00 | 1.02 | 1.02 | 59 | 1000.0 |
| 20260509195954 | 17 | 28 | 3.2 | 4.8 | 0.00 | 1.02 | 1.02 | 62 | 1000.0 |
| 20260509195450 | 17 | 254 | 1.6 | 4.8 | 0.00 | 1.02 | 1.02 | 62 | 1000.1 |
| 20260509194949 | 17 | 270 | 3.2 | 6.4 | 0.00 | 1.02 | 1.02 | 65 | 1000.4 |
| 20260509194445 | 17 | 265 | 1.6 | 3.2 | 0.00 | 1.02 | 1.02 | 66 | 1000.5 |
| 20260509193943 | 16 | 291 | 1.6 | 4.8 | 0.00 | 1.02 | 1.02 | 65 | 1000.6 |
| 20260509193442 | 16 | 146 | 0.0 | 4.8 | 0.00 | 1.02 | 1.02 | 66 | 1000.6 |
| 20260509192939 | 16 | 250 | 3.2 | 3.2 | 0.00 | 1.02 | 1.02 | 68 | 1000.5 |
| 20260509192435 | 16 | 192 | 3.2 | 4.8 | 0.00 | 1.02 | 1.02 | 68 | 1000.7 |
| 20260509191930 | 15 | 180 | 1.6 | 3.2 | 0.00 | 1.02 | 1.02 | 73 | 1000.6 |
| 20260509191426 | 15 | 213 | 3.2 | 3.2 | 0.00 | 1.02 | 1.02 | 72 | 1000.5 |
| 20260509190922 | 15 | 152 | 0.0 | 3.2 | 0.00 | 1.02 | 1.02 | 73 | 1000.6 |
| 20260509190420 | 15 | 204 | 3.2 | 6.4 | 0.00 | 1.02 | 1.02 | 72 | 1000.7 |
| 20260509185917 | 16 | 218 | 3.2 | 6.4 | 0.00 | 1.02 | 1.02 | 70 | 1001.0 |
| 20260509185414 | 15 | 309 | 1.6 | 3.2 | 0.00 | 1.02 | 1.02 | 78 | 1000.9 |
| 20260509184911 | 15 | 271 | 1.6 | 4.8 | 0.00 | 1.02 | 1.02 | 76 | 1001.1 |
| 20260509184408 | 15 | 235 | 1.6 | 1.6 | 0.00 | 1.02 | 1.02 | 78 | 1000.9 |
| 20260509183905 | 15 | 208 | 3.2 | 3.2 | 0.00 | 1.02 | 1.02 | 79 | 1000.9 |
| 20260509183359 | 14 | 283 | 1.6 | 3.2 | 0.00 | 1.02 | 1.02 | 79 | 1000.9 |
| 20260509182856 | 14 | 197 | 0.0 | 3.2 | 0.00 | 1.02 | 1.02 | 80 | 1001.0 |
| 20260509182353 | 13 | 270 | 3.2 | 3.2 | 0.00 | 1.02 | 1.02 | 81 | 1000.9 |
| 20260509181850 | 13 | 324 | 3.2 | 3.2 | 0.00 | 1.02 | 1.02 | 83 | 1000.9 |
| 20260509181347 | 13 | 195 | 1.6 | 3.2 | 0.00 | 1.02 | 1.02 | 85 | 1001.0 |
| 20260509180845 | 13 | 244 | 0.0 | 0.0 | 0.00 | 1.02 | 1.02 | 87 | 1001.0 |
| 20260509180340 | 12 | 263 | 0.0 | 0.0 | 0.00 | 1.02 | 1.02 | 88 | 1000.9 |
| 20260509175838 | 12 | 169 | 0.0 | 0.0 | 0.00 | 1.02 | 1.02 | 89 | 1001.0 |
| 20260509175333 | 12 | 133 | 0.0 | 0.0 | 0.00 | 1.02 | 1.02 | 89 | 1000.8 |
| 20260509174829 | 12 | 297 | 0.0 | 0.0 | 0.00 | 1.02 | 1.02 | 90 | 1000.9 |
| 20260509174326 | 12 | 279 | 0.0 | 0.0 | 0.00 | 1.02 | 1.02 | 91 | 1000.6 |
| 20260509173821 | 12 | 241 | 0.0 | 0.0 | 0.00 | 1.02 | 1.02 | 89 | 1000.7 |
| 20260509173317 | 12 | 292 | 0.0 | 0.0 | 0.00 | 1.02 | 1.02 | 90 | 1000.9 |
| 20260509172814 | 12 | 323 | 0.0 | 0.0 | 0.00 | 1.02 | 1.02 | 91 | 1000.6 |
| 20260509172311 | 12 | 261 | 0.0 | 0.0 | 0.00 | 1.02 | 1.02 | 91 | 1000.8 |
| 20260509171806 | 11 | 331 | 0.0 | 0.0 | 0.00 | 1.02 | 1.02 | 92 | 1000.6 |
| 20260509171302 | 11 | 348 | 0.0 | 0.0 | 0.13 | 1.02 | 1.02 | 92 | 1000.5 |
| 20260509170759 | 11 | 318 | 0.0 | 0.0 | 0.13 | 1.02 | 1.02 | 93 | 1000.4 |
| 20260509170255 | 11 | 45 | 0.0 | 0.0 | 0.00 | 0.99 | 0.99 | 93 | 1000.6 |
| 20260509165754 | 11 | 261 | 0.0 | 0.0 | 0.00 | 0.99 | 0.99 | 92 | 1000.6 |
| 20260509165249 | 11 | 118 | 0.0 | 0.0 | 0.00 | 0.99 | 0.99 | 92 | 1000.6 |
| 20260509164745 | 11 | 160 | 1.6 | 1.6 | 0.00 | 0.99 | 0.99 | 92 | 1000.5 |
| 20260509164241 | 11 | 185 | 0.0 | 3.2 | 0.00 | 0.99 | 0.99 | 92 | 1000.4 |
| 20260509163738 | 11 | 187 | 0.0 | 1.6 | 0.00 | 0.99 | 0.99 | 93 | 1000.3 |
| 20260509163235 | 10 | 78 | 1.6 | 3.2 | 0.00 | 0.99 | 0.99 | 93 | 1000.4 |
| 20260509162733 | 10 | 122 | 1.6 | 4.8 | 0.18 | 0.99 | 0.99 | 93 | 1000.7 |
| 20260509162227 | 10 | 162 | 1.6 | 4.8 | 0.18 | 0.99 | 0.99 | 94 | 1000.6 |
| 20260509161723 | 10 | 184 | 3.2 | 3.2 | 0.00 | 0.97 | 0.97 | 93 | 1000.7 |
| 20260509161220 | 10 | 173 | 3.2 | 4.8 | 0.13 | 0.97 | 0.97 | 93 | 1000.5 |
| 20260509160715 | 10 | 183 | 3.2 | 4.8 | 0.00 | 0.94 | 0.94 | 93 | 1000.7 |
| 20260509160212 | 10 | 181 | 1.6 | 4.8 | 0.18 | 0.94 | 0.94 | 93 | 1000.9 |
| 20260509155706 | 10 | 184 | 4.8 | 4.8 | 0.18 | 0.94 | 0.94 | 94 | 1000.8 |
| 20260509155203 | 10 | 265 | 1.6 | 3.2 | 0.13 | 0.91 | 0.91 | 94 | 1001.0 |
| 20260509154659 | 10 | 225 | 1.6 | 3.2 | 0.13 | 0.91 | 0.91 | 94 | 1000.8 |
| 20260509154157 | 10 | 188 | 4.8 | 4.8 | 0.18 | 0.89 | 0.89 | 94 | 1000.9 |
| 20260509153654 | 10 | 181 | 1.6 | 3.2 | 0.18 | 0.89 | 0.89 | 94 | 1000.8 |
| 20260509153150 | 10 | 187 | 4.8 | 4.8 | 0.18 | 0.86 | 0.86 | 94 | 1000.8 |
| 20260509152646 | 10 | 260 | 0.0 | 3.2 | 0.18 | 0.86 | 0.86 | 94 | 1001.1 |
| 20260509152143 | 10 | 253 | 1.6 | 1.6 | 0.13 | 0.84 | 0.84 | 94 | 1001.0 |
| 20260509151640 | 10 | 202 | 1.6 | 3.2 | 0.30 | 0.84 | 0.84 | 94 | 1000.8 |
| 20260509151137 | 10 | 140 | 1.6 | 4.8 | 0.18 | 0.81 | 0.81 | 94 | 1000.9 |
| 20260509150635 | 10 | 232 | 0.0 | 3.2 | 0.13 | 0.79 | 0.79 | 94 | 1001.0 |
| 20260509150133 | 10 | 178 | 3.2 | 4.8 | 0.30 | 0.79 | 0.79 | 94 | 1001.0 |
| 20260509145629 | 10 | 234 | 0.0 | 1.6 | 0.30 | 0.76 | 0.76 | 94 | 1001.1 |
| 20260509145124 | 10 | 201 | 0.0 | 3.2 | 0.13 | 0.74 | 0.74 | 94 | 1001.2 |
| 20260509144621 | 10 | 194 | 1.6 | 4.8 | 0.00 | 0.71 | 0.71 | 94 | 1001.0 |
| 20260509144118 | 10 | 176 | 1.6 | 4.8 | 0.18 | 0.71 | 0.71 | 94 | 1001.2 |
| 20260509143615 | 10 | 193 | 3.2 | 3.2 | 0.30 | 0.71 | 0.71 | 94 | 1001.1 |
| 20260509143113 | 10 | 184 | 3.2 | 3.2 | 0.13 | 0.69 | 0.69 | 94 | 1001.2 |
| 20260509142608 | 10 | 195 | 1.6 | 3.2 | 0.18 | 0.66 | 0.66 | 94 | 1001.2 |
| 20260509142104 | 10 | 232 | 0.0 | 1.6 | 0.30 | 0.66 | 0.66 | 94 | 1001.3 |
| 20260509141600 | 10 | 233 | 0.0 | 1.6 | 0.30 | 0.64 | 0.64 | 94 | 1001.1 |
| 20260509141057 | 10 | 163 | 1.6 | 3.2 | 0.30 | 0.61 | 0.61 | 94 | 1001.3 |
| 20260509140554 | 10 | 195 | 3.2 | 4.8 | 0.13 | 0.58 | 0.58 | 94 | 1001.2 |
| 20260509140052 | 10 | 211 | 0.0 | 1.6 | 0.18 | 0.56 | 0.56 | 94 | 1001.3 |
| 20260509135549 | 10 | 193 | 1.6 | 3.2 | 0.18 | 0.53 | 0.53 | 94 | 1001.2 |
| 20260509135047 | 10 | 288 | 1.6 | 3.2 | 0.30 | 0.53 | 0.53 | 94 | 1001.3 |
| 20260509134543 | 10 | 188 | 1.6 | 3.2 | 0.13 | 0.51 | 0.51 | 94 | 1001.4 |
| 20260509134041 | 10 | 241 | 3.2 | 3.2 | 0.18 | 0.48 | 0.48 | 94 | 1001.4 |
| 20260509133538 | 10 | 262 | 1.6 | 3.2 | 0.18 | 0.48 | 0.48 | 94 | 1001.4 |
| 20260509133035 | 10 | 183 | 4.8 | 4.8 | 0.13 | 0.46 | 0.46 | 94 | 1001.3 |
| 20260509132534 | 10 | 64 | 0.0 | 1.6 | 0.13 | 0.46 | 0.46 | 94 | 1001.2 |
| 20260509132032 | 10 | 1 | 1.6 | 3.2 | 0.18 | 0.43 | 0.43 | 94 | 1001.3 |
| 20260509131527 | 10 | 196 | 1.6 | 3.2 | 0.18 | 0.43 | 0.43 | 94 | 1001.2 |
| 20260509131025 | 10 | 197 | 3.2 | 3.2 | 0.13 | 0.41 | 0.41 | 94 | 1001.6 |
| 20260509130520 | 10 | 236 | 0.0 | 1.6 | 0.13 | 0.41 | 0.41 | 94 | 1001.5 |
| 20260509130017 | 10 | 172 | 1.6 | 3.2 | 0.18 | 0.38 | 0.38 | 94 | 1001.6 |
| 20260509125514 | 10 | 262 | 1.6 | 3.2 | 0.13 | 0.36 | 0.36 | 94 | 1001.6 |
| 20260509125010 | 10 | 181 | 3.2 | 3.2 | 0.13 | 0.36 | 0.36 | 94 | 1001.5 |
| 20260509124507 | 10 | 173 | 3.2 | 4.8 | 0.18 | 0.33 | 0.33 | 94 | 1001.5 |
| 20260509124004 | 10 | 164 | 1.6 | 4.8 | 0.18 | 0.33 | 0.33 | 94 | 1001.6 |
| 20260509123502 | 10 | 186 | 0.0 | 1.6 | 0.00 | 0.30 | 0.30 | 94 | 1001.4 |
| 20260509122957 | 10 | 217 | 3.2 | 3.2 | 0.00 | 0.30 | 0.30 | 94 | 1001.6 |
| 20260509122454 | 10 | 125 | 0.0 | 3.2 | 0.13 | 0.30 | 0.30 | 94 | 1001.6 |
| 20260509121951 | 10 | 136 | 0.0 | 3.2 | 0.13 | 0.30 | 0.30 | 94 | 1001.6 |
| 20260509121448 | 10 | 192 | 0.0 | 0.0 | 0.00 | 0.28 | 0.28 | 94 | 1001.6 |
| 20260509120946 | 10 | 235 | 0.0 | 0.0 | 0.18 | 0.28 | 0.28 | 94 | 1001.6 |
| 20260509120444 | 10 | 250 | 0.0 | 0.0 | 0.18 | 0.28 | 0.28 | 94 | 1001.6 |
| 20260509115942 | 10 | 174 | 0.0 | 1.6 | 0.00 | 0.25 | 0.25 | 94 | 1001.6 |
| 20260509115438 | 10 | 139 | 1.6 | 1.6 | 0.13 | 0.25 | 0.25 | 94 | 1001.7 |
| 20260509114936 | 9 | 250 | 0.0 | 0.0 | 0.00 | 0.23 | 0.23 | 94 | 1001.4 |
| 20260509114434 | 9 | 207 | 0.0 | 3.2 | 0.00 | 0.23 | 0.23 | 93 | 1001.5 |
| 20260509113933 | 9 | 92 | 0.0 | 3.2 | 0.18 | 0.23 | 0.23 | 93 | 1001.6 |
| 20260509113430 | 9 | 181 | 1.6 | 1.6 | 0.18 | 0.23 | 0.23 | 93 | 1001.4 |
| 20260509112927 | 9 | 195 | 1.6 | 4.8 | 0.18 | 0.20 | 0.20 | 93 | 1001.5 |
| 20260509112425 | 9 | 194 | 1.6 | 1.6 | 0.18 | 0.20 | 0.20 | 93 | 1001.5 |
| 20260509111921 | 9 | 178 | 1.6 | 1.6 | 0.13 | 0.18 | 0.18 | 92 | 1001.7 |
| 20260509111418 | 9 | 184 | 1.6 | 4.8 | 0.18 | 0.15 | 0.15 | 92 | 1001.6 |
| 20260509110916 | 9 | 171 | 1.6 | 3.2 | 0.18 | 0.15 | 0.15 | 91 | 1001.5 |
| 20260509110411 | 10 | 202 | 1.6 | 3.2 | 0.13 | 0.13 | 0.13 | 91 | 1001.6 |
| 20260509105910 | 10 | 188 | 1.6 | 3.2 | 0.13 | 0.13 | 0.13 | 91 | 1001.5 |
| 20260509105408 | 10 | 252 | 1.6 | 4.8 | 0.00 | 0.10 | 0.10 | 91 | 1001.5 |
| 20260509104905 | 9 | 177 | 3.2 | 4.8 | 0.00 | 0.10 | 0.10 | 91 | 1001.6 |
| 20260509104402 | 9 | 188 | 3.2 | 3.2 | 0.00 | 0.10 | 0.10 | 91 | 1001.5 |
| 20260509103859 | 9 | 180 | 3.2 | 3.2 | 0.00 | 0.10 | 0.10 | 91 | 1001.4 |
| 20260509103356 | 9 | 150 | 1.6 | 4.8 | 0.00 | 0.10 | 0.10 | 91 | 1001.4 |
| 20260509102855 | 9 | 179 | 1.6 | 4.8 | 0.00 | 0.10 | 0.10 | 91 | 1001.4 |
| 20260509102352 | 9 | 209 | 1.6 | 4.8 | 0.00 | 0.10 | 0.10 | 91 | 1001.6 |
| 20260509101847 | 9 | 83 | 0.0 | 3.2 | 0.18 | 0.10 | 0.10 | 91 | 1001.5 |
| 20260509101343 | 9 | 188 | 0.0 | 3.2 | 0.18 | 0.10 | 0.10 | 91 | 1001.7 |
| 20260509100842 | 9 | 217 | 3.2 | 3.2 | 0.00 | 0.08 | 0.08 | 91 | 1001.7 |
| 20260509100338 | 9 | 278 | 0.0 | 3.2 | 0.00 | 0.08 | 0.08 | 91 | 1001.7 |
| 20260509095835 | 9 | 186 | 3.2 | 4.8 | 0.13 | 0.08 | 0.08 | 90 | 1001.6 |
| 20260509095332 | 10 | 259 | 3.2 | 3.2 | 0.13 | 0.08 | 0.08 | 90 | 1001.7 |
| 20260509094830 | 10 | 176 | 3.2 | 4.8 | 0.00 | 0.05 | 0.05 | 89 | 1001.6 |
| 20260509094326 | 10 | 217 | 3.2 | 3.2 | 0.18 | 0.05 | 0.05 | 88 | 1002.0 |
| 20260509093824 | 10 | 233 | 3.2 | 3.2 | 0.18 | 0.05 | 0.05 | 88 | 1002.0 |
| 20260509093321 | 10 | 173 | 3.2 | 4.8 | 0.00 | 0.03 | 0.03 | 87 | 1002.0 |
| 20260509092819 | 10 | 211 | 3.2 | 6.4 | 0.00 | 0.03 | 0.03 | 86 | 1002.2 |
| 20260509092317 | 9 | 184 | 1.6 | 3.2 | 0.13 | 0.03 | 0.03 | 88 | 1001.9 |
| 20260509091815 | 8 | 193 | 1.6 | 4.8 | 0.13 | 0.03 | 0.03 | 90 | 1001.9 |
| 20260509091311 | 8 | 173 | 1.6 | 3.2 | 0.00 | 0.00 | 0.00 | 92 | 1001.8 |
| 20260509090809 | 8 | 75 | 0.0 | 1.6 | 0.00 | 0.00 | 0.00 | 93 | 1001.8 |
| 20260509090305 | 8 | 64 | 1.6 | 4.8 | 0.00 | 0.00 | 0.00 | 93 | 1001.6 |
| 20260509085803 | 8 | 93 | 0.0 | 0.0 | 0.00 | 0.00 | 0.00 | 93 | 1001.7 |
| 20260509085300 | 8 | 126 | 0.0 | 0.0 | 0.00 | 0.00 | 0.00 | 93 | 1001.5 |
| 20260509084757 | 8 | 312 | 0.0 | 1.6 | 0.00 | 0.00 | 0.00 | 92 | 1001.5 |
| 20260509084254 | 8 | 355 | 0.0 | 1.6 | 0.00 | 0.00 | 0.00 | 92 | 1001.3 |
| 20260509083752 | 8 | 258 | 1.6 | 1.6 | 0.00 | 0.00 | 0.00 | 92 | 1001.1 |
| 20260509083248 | 8 | 14 | 0.0 | 1.6 | 0.00 | 0.00 | 0.00 | 92 | 1001.1 |
| 20260509082744 | 8 | 323 | 0.0 | 0.0 | 0.00 | 0.00 | 0.00 | 92 | 1001.1 |
| 20260509082241 | 8 | 140 | 0.0 | 0.0 | 0.00 | 0.00 | 0.00 | 92 | 1000.6 |
| 20260509081738 | 8 | 20 | 0.0 | 0.0 | 0.00 | 0.00 | 0.00 | 91 | 1000.7 |
| 20260509081236 | 8 | 20 | 0.0 | 0.0 | 0.00 | 0.00 | 0.00 | 91 | 1000.7 |
| 20260509080734 | 8 | 22 | 0.0 | 0.0 | 0.00 | 0.00 | 0.00 | 91 | 1000.7 |
| 20260509080231 | 8 | 22 | 0.0 | 0.0 | 0.00 | 0.00 | 0.00 | 91 | 1000.7 |
| 20260509075729 | 8 | 22 | 0.0 | 0.0 | 0.00 | 0.00 | 0.00 | 91 | 1000.8 |
| 20260509075226 | 8 | 22 | 0.0 | 0.0 | 0.00 | 0.00 | 0.00 | 91 | 1000.8 |
| 20260509074723 | 8 | 22 | 0.0 | 0.0 | 0.00 | 0.00 | 0.00 | 91 | 1000.7 |
| 20260509074221 | 8 | 22 | 0.0 | 0.0 | 0.00 | 0.00 | 0.00 | 91 | 1000.4 |
| 20260509073717 | 8 | 22 | 0.0 | 0.0 | 0.00 | 0.00 | 0.00 | 91 | 1000.5 |
| 20260509073213 | 8 | 22 | 0.0 | 0.0 | 0.00 | 0.00 | 0.00 | 90 | 1000.5 |
| 20260509072710 | 8 | 22 | 0.0 | 0.0 | 0.00 | 0.00 | 0.00 | 91 | 1000.3 |
| 20260509072207 | 8 | 75 | 0.0 | 0.0 | 0.00 | 0.00 | 0.00 | 91 | 1000.3 |
| 20260509071703 | 8 | 97 | 0.0 | 0.0 | 0.00 | 0.00 | 0.00 | 91 | 1000.5 |
| 20260509071201 | 8 | 101 | 0.0 | 1.6 | 0.00 | 0.00 | 0.00 | 91 | 1000.5 |
| 20260509070658 | 8 | 83 | 0.0 | 0.0 | 0.00 | 0.00 | 0.00 | 91 | 1000.7 |
| 20260509070154 | 8 | 109 | 0.0 | 0.0 | 0.00 | 0.00 | 0.00 | 91 | 1000.5 |
| 20260509065650 | 8 | 121 | 0.0 | 0.0 | 0.00 | 0.00 | 0.00 | 91 | 1000.7 |
| 20260509065146 | 8 | 162 | 0.0 | 0.0 | 0.00 | 0.00 | 0.00 | 90 | 1000.8 |
| 20260509064643 | 8 | 38 | 0.0 | 0.0 | 0.00 | 0.00 | 0.00 | 90 | 1000.5 |
| 20260509064141 | 8 | 38 | 0.0 | 0.0 | 0.00 | 0.00 | 0.00 | 90 | 1000.6 |
| 20260509063638 | 8 | 38 | 0.0 | 0.0 | 0.00 | 0.00 | 0.00 | 90 | 1000.8 |
| 20260509063134 | 8 | 38 | 0.0 | 0.0 | 0.00 | 0.00 | 0.00 | 90 | 1001.0 |
| 20260509062632 | 8 | 38 | 0.0 | 0.0 | 0.00 | 0.00 | 0.00 | 89 | 1001.2 |
| 20260509062128 | 8 | 38 | 0.0 | 1.6 | 0.00 | 0.00 | 0.00 | 89 | 1001.4 |
| 20260509061625 | 8 | 106 | 0.0 | 0.0 | 0.00 | 0.00 | 0.00 | 89 | 1001.5 |
| 20260509061123 | 8 | 26 | 0.0 | 1.6 | 0.00 | 0.00 | 0.00 | 89 | 1001.7 |
| 20260509060620 | 9 | 26 | 0.0 | 0.0 | 0.00 | 0.00 | 0.00 | 89 | 1001.8 |
| 20260509060116 | 9 | 66 | 0.0 | 0.0 | 0.00 | 0.00 | 0.00 | 89 | 1001.8 |
| 20260509055612 | 9 | 70 | 0.0 | 0.0 | 0.00 | 0.00 | 0.00 | 88 | 1001.8 |
| 20260509055108 | 9 | 88 | 0.0 | 0.0 | 0.00 | 0.00 | 0.00 | 88 | 1001.7 |
| 20260509054604 | 9 | 88 | 0.0 | 0.0 | 0.00 | 0.00 | 0.00 | 88 | 1002.0 |
| 20260509054102 | 9 | 90 | 0.0 | 0.0 | 0.00 | 0.00 | 0.00 | 88 | 1001.9 |
| 20260509053601 | 9 | 62 | 0.0 | 0.0 | 0.00 | 0.00 | 0.00 | 88 | 1002.2 |
| 20260509053057 | 9 | 62 | 0.0 | 0.0 | 0.00 | 0.00 | 0.00 | 88 | 1002.2 |
| 20260509052555 | 9 | 60 | 0.0 | 0.0 | 0.00 | 0.00 | 0.00 | 88 | 1002.1 |
| 20260509052053 | 9 | 67 | 0.0 | 0.0 | 0.00 | 0.00 | 0.00 | 87 | 1002.1 |
| 20260509051551 | 9 | 73 | 0.0 | 0.0 | 0.00 | 0.00 | 0.00 | 87 | 1002.1 |
| 20260509051047 | 9 | 81 | 0.0 | 0.0 | 0.00 | 0.00 | 0.00 | 87 | 1002.4 |
| 20260509050544 | 9 | 81 | 0.0 | 0.0 | 0.00 | 0.00 | 0.00 | 87 | 1002.6 |
| 20260509050041 | 9 | 63 | 0.0 | 0.0 | 0.00 | 0.00 | 0.00 | 86 | 1002.6 |
| 20260509045538 | 9 | 82 | 0.0 | 0.0 | 0.00 | 0.00 | 0.00 | 86 | 1002.4 |
| 20260509045035 | 9 | 96 | 0.0 | 0.0 | 0.00 | 0.00 | 0.00 | 85 | 1002.4 |
| 20260509044533 | 9 | 96 | 0.0 | 0.0 | 0.00 | 0.00 | 0.00 | 85 | 1002.4 |
| 20260509044030 | 9 | 98 | 0.0 | 0.0 | 0.00 | 0.00 | 0.00 | 85 | 1002.6 |
| 20260509043526 | 9 | 98 | 0.0 | 0.0 | 0.00 | 0.00 | 0.00 | 86 | 1002.7 |
| 20260509043022 | 9 | 101 | 0.0 | 0.0 | 0.00 | 0.00 | 0.00 | 87 | 1002.8 |
| 20260509042518 | 9 | 96 | 0.0 | 0.0 | 0.00 | 0.00 | 0.00 | 86 | 1002.7 |
| 20260509042014 | 9 | 99 | 0.0 | 0.0 | 0.00 | 0.00 | 0.00 | 86 | 1002.8 |
| 20260509041511 | 9 | 99 | 0.0 | 0.0 | 0.00 | 0.00 | 0.00 | 86 | 1002.9 |
| 20260509041009 | 9 | 92 | 0.0 | 0.0 | 0.00 | 0.00 | 0.00 | 86 | 1002.9 |
| 20260509040507 | 9 | 101 | 0.0 | 0.0 | 0.00 | 0.00 | 0.00 | 85 | 1003.0 |
| 20260509040004 | 9 | 97 | 0.0 | 0.0 | 0.00 | 0.00 | 0.00 | 86 | 1002.9 |
| 20260509035500 | 9 | 82 | 0.0 | 0.0 | 0.00 | 0.00 | 0.00 | 86 | 1003.1 |
| 20260509034957 | 9 | 93 | 0.0 | 0.0 | 0.00 | 0.00 | 0.00 | 86 | 1003.3 |
| 20260509034455 | 9 | 169 | 0.0 | 0.0 | 0.00 | 0.00 | 0.00 | 86 | 1003.4 |
| 20260509033951 | 9 | 70 | 0.0 | 0.0 | 0.00 | 0.00 | 0.00 | 85 | 1003.3 |
| 20260509033448 | 10 | 89 | 0.0 | 0.0 | 0.00 | 0.00 | 0.00 | 85 | 1003.4 |
| 20260509032945 | 10 | 105 | 0.0 | 0.0 | 0.00 | 0.00 | 0.00 | 85 | 1003.4 |
| 20260509032443 | 10 | 146 | 0.0 | 0.0 | 0.00 | 0.00 | 0.00 | 85 | 1003.5 |
| 20260509031940 | 10 | 63 | 0.0 | 0.0 | 0.00 | 0.00 | 0.00 | 84 | 1003.3 |
| 20260509031437 | 10 | 68 | 0.0 | 0.0 | 0.00 | 0.00 | 0.00 | 84 | 1003.3 |
| 20260509030935 | 10 | 68 | 0.0 | 0.0 | 0.00 | 0.00 | 0.00 | 83 | 1003.3 |
| 20260509030433 | 10 | 68 | 0.0 | 0.0 | 0.00 | 0.00 | 0.00 | 83 | 1003.3 |
| 20260509025929 | 10 | 89 | 0.0 | 0.0 | 0.00 | 0.00 | 0.00 | 83 | 1003.2 |
| 20260509025425 | 10 | 91 | 0.0 | 0.0 | 0.00 | 0.00 | 0.00 | 81 | 1003.2 |
| 20260509024920 | 10 | 79 | 0.0 | 0.0 | 0.00 | 0.00 | 0.00 | 81 | 1003.1 |
| 20260509024417 | 10 | 66 | 0.0 | 0.0 | 0.00 | 0.00 | 0.00 | 82 | 1003.0 |
| 20260509023914 | 10 | 72 | 0.0 | 0.0 | 0.00 | 0.00 | 0.00 | 81 | 1003.2 |
| 20260509023411 | 10 | 93 | 0.0 | 0.0 | 0.00 | 0.00 | 0.00 | 82 | 1003.1 |
| 20260509022908 | 10 | 119 | 0.0 | 0.0 | 0.00 | 0.00 | 0.00 | 81 | 1003.1 |
| 20260509022405 | 10 | 157 | 0.0 | 0.0 | 0.00 | 0.00 | 0.00 | 81 | 1003.2 |
| 20260509021902 | 10 | 35 | 0.0 | 0.0 | 0.00 | 0.00 | 0.00 | 80 | 1003.0 |
| 20260509021359 | 10 | 139 | 0.0 | 0.0 | 0.00 | 0.00 | 0.00 | 80 | 1002.9 |
| 20260509020857 | 10 | 13 | 0.0 | 0.0 | 0.00 | 0.00 | 0.00 | 80 | 1002.8 |
| 20260509020355 | 10 | 65 | 0.0 | 0.0 | 0.00 | 0.00 | 0.00 | 80 | 1002.6 |
| 20260509015852 | 10 | 73 | 0.0 | 0.0 | 0.00 | 0.00 | 0.00 | 81 | 1002.7 |
| 20260509015350 | 10 | 73 | 0.0 | 0.0 | 0.00 | 0.00 | 0.00 | 78 | 1002.9 |
| 20260509014846 | 10 | 72 | 0.0 | 0.0 | 0.00 | 0.00 | 0.00 | 78 | 1002.5 |
| 20260509014343 | 10 | 72 | 0.0 | 0.0 | 0.00 | 0.00 | 0.00 | 77 | 1002.5 |
| 20260509013839 | 10 | 72 | 0.0 | 0.0 | 0.00 | 0.00 | 0.00 | 76 | 1002.4 |
| 20260509013336 | 10 | 73 | 0.0 | 0.0 | 0.00 | 0.00 | 0.00 | 76 | 1002.5 |
| 20260509012832 | 10 | 73 | 0.0 | 0.0 | 0.00 | 0.00 | 0.00 | 78 | 1002.5 |
| 20260509012329 | 10 | 73 | 0.0 | 0.0 | 0.00 | 0.00 | 0.00 | 79 | 1002.2 |
| 20260509011826 | 10 | 72 | 0.0 | 0.0 | 0.00 | 0.00 | 0.00 | 79 | 1002.5 |
| 20260509011324 | 10 | 73 | 0.0 | 0.0 | 0.00 | 0.00 | 0.00 | 79 | 1002.2 |
| 20260509010821 | 10 | 15 | 0.0 | 0.0 | 0.00 | 0.00 | 0.00 | 80 | 1002.4 |
| 20260509010318 | 10 | 77 | 0.0 | 0.0 | 0.00 | 0.00 | 0.00 | 78 | 1002.4 |
| 20260509005815 | 10 | 82 | 0.0 | 0.0 | 0.00 | 0.00 | 0.00 | 80 | 1002.5 |
| 20260509005313 | 10 | 76 | 0.0 | 0.0 | 0.00 | 0.00 | 0.00 | 78 | 1002.6 |
| 20260509004808 | 10 | 85 | 0.0 | 0.0 | 0.00 | 0.00 | 0.00 | 78 | 1002.7 |
| 20260509004304 | 10 | 91 | 0.0 | 0.0 | 0.00 | 0.00 | 0.00 | 77 | 1002.5 |
| 20260509003802 | 10 | 73 | 0.0 | 0.0 | 0.00 | 0.00 | 0.00 | 79 | 1002.6 |
| 20260509003300 | 10 | 73 | 0.0 | 0.0 | 0.00 | 0.00 | 0.00 | 77 | 1002.5 |
| 20260509002757 | 10 | 63 | 0.0 | 0.0 | 0.00 | 0.00 | 0.00 | 77 | 1002.5 |
| 20260509002254 | 10 | 57 | 0.0 | 0.0 | 0.00 | 0.00 | 0.00 | 75 | 1002.5 |
| 20260509001752 | 11 | 57 | 0.0 | 0.0 | 0.00 | 0.00 | 0.00 | 77 | 1002.6 |
| 20260509001247 | 11 | 76 | 0.0 | 0.0 | 0.00 | 0.00 | 0.00 | 76 | 1002.2 |
| 20260509000745 | 11 | 77 | 0.0 | 0.0 | 0.00 | 0.00 | 0.00 | 75 | 1002.2 |
| 20260509000242 | 11 | 83 | 0.0 | 0.0 | 0.00 | 0.00 | 0.00 | 76 | 1002.2 |
| 20260508235739 | 11 | 83 | 0.0 | 0.0 | 0.00 | 0.00 | 0.00 | 75 | 1002.2 |
| 20260508235236 | 11 | 83 | 0.0 | 0.0 | 0.00 | 0.00 | 0.00 | 74 | 1002.2 |
| 20260508234733 | 11 | 82 | 0.0 | 0.0 | 0.00 | 0.00 | 0.00 | 73 | 1002.4 |
| 20260508234230 | 11 | 82 | 0.0 | 0.0 | 0.00 | 0.00 | 0.00 | 71 | 1002.7 |
| 20260508233729 | 11 | 84 | 0.0 | 0.0 | 0.00 | 0.00 | 0.00 | 72 | 1002.6 |
| 20260508233227 | 11 | 86 | 0.0 | 0.0 | 0.00 | 0.00 | 0.00 | 73 | 1002.5 |
| 20260508232724 | 11 | 69 | 0.0 | 0.0 | 0.00 | 0.00 | 0.00 | 74 | 1002.6 |
| 20260508232220 | 11 | 66 | 0.0 | 0.0 | 0.00 | 0.00 | 0.00 | 72 | 1002.5 |
| 20260508231719 | 11 | 61 | 0.0 | 0.0 | 0.00 | 0.00 | 0.00 | 71 | 1002.5 |
| 20260508231215 | 11 | 60 | 0.0 | 0.0 | 0.00 | 0.00 | 0.00 | 70 | 1002.5 |
| 20260508230712 | 12 | 60 | 0.0 | 0.0 | 0.00 | 0.00 | 0.00 | 68 | 1002.7 |
| 20260508230208 | 12 | 34 | 0.0 | 0.0 | 0.00 | 0.00 | 0.00 | 67 | 1002.5 |
| 20260508225706 | 12 | 274 | 0.0 | 0.0 | 0.00 | 0.00 | 0.00 | 65 | 1002.5 |
| 20260508225202 | 12 | 274 | 0.0 | 0.0 | 0.00 | 0.00 | 0.00 | 65 | 1002.5 |
| 20260508224700 | 12 | 274 | 0.0 | 0.0 | 0.00 | 0.00 | 0.00 | 62 | 1002.4 |
| 20260508224157 | 12 | 274 | 0.0 | 0.0 | 0.00 | 0.00 | 0.00 | 60 | 1002.5 |
| 20260508223655 | 12 | 274 | 0.0 | 0.0 | 0.00 | 0.00 | 0.00 | 60 | 1002.4 |
| 20260508223152 | 12 | 274 | 0.0 | 0.0 | 0.00 | 0.00 | 0.00 | 59 | 1002.7 |
| 20260508222649 | 12 | 274 | 0.0 | 0.0 | 0.00 | 0.00 | 0.00 | 61 | 1002.6 |
| 20260508222147 | 13 | 296 | 0.0 | 0.0 | 0.00 | 0.00 | 0.00 | 59 | 1002.2 |
| 20260508221643 | 13 | 296 | 0.0 | 0.0 | 0.00 | 0.00 | 0.00 | 60 | 1002.5 |
| 20260508221138 | 13 | 321 | 0.0 | 0.0 | 0.00 | 0.00 | 0.00 | 61 | 1002.5 |
| 20260508220635 | 13 | 359 | 0.0 | 0.0 | 0.00 | 0.00 | 0.00 | 62 | 1002.5 |
| 20260508220132 | 13 | 120 | 0.0 | 0.0 | 0.00 | 0.00 | 0.00 | 62 | 1002.6 |
| 20260508215628 | 12 | 196 | 0.0 | 0.0 | 0.00 | 0.00 | 0.00 | 63 | 1002.5 |
| 20260508215125 | 12 | 174 | 0.0 | 0.0 | 0.00 | 0.00 | 0.00 | 65 | 1002.6 |
| 20260508214622 | 12 | 137 | 0.0 | 0.0 | 0.00 | 0.00 | 0.00 | 64 | 1002.5 |
| 20260508214119 | 12 | 133 | 0.0 | 0.0 | 0.00 | 0.00 | 0.00 | 64 | 1002.7 |
| 20260508213616 | 12 | 158 | 0.0 | 0.0 | 0.00 | 0.00 | 0.00 | 65 | 1002.9 |
| 20260508213112 | 12 | 172 | 0.0 | 0.0 | 0.00 | 0.00 | 0.00 | 66 | 1003.0 |
| 20260508212609 | 12 | 160 | 0.0 | 0.0 | 0.00 | 0.00 | 0.00 | 67 | 1002.9 |
| 20260508212105 | 12 | 93 | 0.0 | 0.0 | 0.00 | 0.00 | 0.00 | 72 | 1003.1 |
| 20260508211600 | 12 | 85 | 0.0 | 0.0 | 0.00 | 0.00 | 0.00 | 69 | 1003.0 |
| 20260508211057 | 12 | 97 | 0.0 | 0.0 | 0.00 | 0.00 | 0.00 | 67 | 1003.0 |
| 20260508210554 | 12 | 142 | 0.0 | 0.0 | 0.00 | 0.00 | 0.00 | 66 | 1003.1 |
| 20260508210051 | 12 | 177 | 0.0 | 0.0 | 0.00 | 0.00 | 0.00 | 64 | 1003.2 |
| 20260508205548 | 12 | 151 | 0.0 | 1.6 | 0.00 | 0.00 | 0.00 | 67 | 1003.3 |
| 20260508205044 | 12 | 240 | 1.6 | 1.6 | 0.00 | 0.00 | 0.00 | 66 | 1003.4 |
| 20260508204541 | 12 | 250 | 0.0 | 1.6 | 0.00 | 0.00 | 0.00 | 66 | 1003.3 |
| 20260508204037 | 12 | 291 | 0.0 | 1.6 | 0.00 | 0.00 | 0.00 | 65 | 1003.4 |
| 20260508203533 | 12 | 254 | 0.0 | 1.6 | 0.00 | 0.00 | 0.00 | 64 | 1003.6 |
| 20260508203029 | 12 | 270 | 0.0 | 1.6 | 0.00 | 0.00 | 0.00 | 63 | 1003.4 |
| 20260508202526 | 12 | 233 | 1.6 | 3.2 | 0.00 | 0.00 | 0.00 | 61 | 1003.7 |